Regional Weather Roundup
Issued by NWS

Home | Current Version | Previous Version | Graphics & Text | Print | Product List | Glossary On
Versions: 1 2 3 4 5 6 7 8 9 10 11 12 13 14 15 16 17 18 19 20 21 22 23 24 25 26 27 28 29 30 31 32 33 34 35 36 37 38 39 40 41 42 43 44 45 46 47 48 49 50
000
ASUS43 KLSX 230059
RWRMO

WEATHER SUMMARY FOR MISSOURI
NATIONAL WEATHER SERVICE SPRINGFIELD MO
800 PM CDT FRI AUG 22 2014

NOTE: "FAIR" INDICATES FEW OR NO CLOUDS BELOW 12,000 FEET WITH NO
       SIGNIFICANT WEATHER AND/OR OBSTRUCTIONS TO VISIBILITY.
       CURRENT SKY AND/OR WEATHER CONDITIONS ARE NOT AVAILABLE FOR
       CHILLICOTHE AND FARMINGTON.

MOZ001>031-035>038-043-044-053-054-230200-
...NORTHERN AND WESTERN MISSOURI...

CITY           SKY/WX    TMP DP  RH WIND       PRES   REMARKS
KANSAS CTY INT CLOUDY    86  76  71 S13       29.89F HX  96
KANSAS C DTWN  CLOUDY    85  68  56 S12       29.87F
LEE`S SUMMIT   CLOUDY    79  70  74 CALM      29.89F
ST JOSEPH      MOCLDY    81  77  88 N8        29.90R
KIRKSVILLE     PTCLDY    82  78  88 SE5       29.94S HX  91

$$
MOZ066>068-077>081-088>096-101>105-230200-
...SOUTHWEST MISSOURI...

CITY           SKY/WX    TMP DP  RH WIND       PRES   REMARKS
SPRINGFIELD    PTCLDY    89  67  47 SW7       29.95F HX  92
JOPLIN         CLEAR     89  70  53 S10       29.93F HX  94

$$
MOZ032>034-039>042-045>050-055>058-069>072-230200-
...CENTRAL MISSOURI...

CITY           SKY/WX    TMP DP  RH WIND       PRES   REMARKS
COLUMBIA       MOCLDY    89  77  67 CALM      29.92S HX 101
JEFFERSON CITY MOCLDY    88  75  65 CALM      29.89S HX  97
ROLLA          PTCLDY    85  69  58 S7        29.92F
SEDALIA        MOCLDY    88  74  63 CALM      29.92F HX  96
OSAGE BEACH    PTCLDY    90  70  51 W3        29.92R HX  95

$$
MOZ051-052-059>065-230200-
...EAST CENTRAL MISSOURI...

CITY           SKY/WX    TMP DP  RH WIND       PRES   REMARKS
ST LOUIS INTL  MOCLDY    90  75  61 S6        29.92S HX 100
SPIRIT OF STL  MOCLDY    83  79  88 CALM      29.90S HX  94
ST CHARLES     MOCLDY    85  78  80 SE5       29.90S HX  96

$$
MOZ072>076-082>087-097>100-106>115-230200-
...SOUTH CENTRAL AND SOUTHEAST MISSOURI...

CITY           SKY/WX    TMP DP  RH WIND       PRES   REMARKS
CAPE GIRARDEAU PTCLDY    84  77  79 S7        29.93F HX  94
FARMINGTON     PTCLDY    86  72  62 S9        29.97S HX  92
POPLAR BLUFF   PTCLDY    85  75  72 S3        29.93S HX  93
WEST PLAINS    MOCLDY    85  70  60 S3        29.99R

$$


USA.gov is the U.S. government's official web portal to all federal, state and local government web resources and services.